Weather History for Sand Island, Henderson Field, HI

Change the Weather History Date:

Wednesday, December 4, 2013

  Actual Average Record
Temperature  
Mean Temperature 71 °F -  
Max Temperature 74 °F - - ()
Min Temperature 68 °F - - ()
Cooling Degree Days 6    
Growing Degree Days 21 (Base 50)    
Moisture  
Dew Point 64 °F    
Average Humidity 78    
Maximum Humidity 94    
Minimum Humidity 53    
Precipitation  
Precipitation 0.10 in - - ()
Sea Level Pressure  
Sea Level Pressure 30.33 in    
Wind  
Wind Speed 14 mph (NW)    
Max Wind Speed 21 mph    
Max Gust Speed 39 mph    
Visibility 5 miles    
Events Fog , Rain    
T = Trace of Precipitation, MM = Missing Value Source: NWS Daily Summary

Daily Weather History Graph

Daily Weather History Graph

Search for Another Location

Airport:

Trip Planner

Search our weather history database for the weather conditions in past years. The results will help you decide how hot, cold, wet, or windy it might be!

Date:

Astronomy

Dec. 04, 2013 Rise Set
Actual Time 6:26 PM GMT 4:53 AM GMT
Civil Twilight 6:00 PM GMT 5:18 AM GMT
Nautical Twilight 5:31 PM GMT 5:47 AM GMT
Astronomical Twilight 5:03 PM GMT 6:16 AM GMT
Moon 8:11 PM GMT (12/4) 6:10 AM GMT (12/4)
Length of Visible Light 11h 17m
Length of Day
10h 26m
Waxing Crescent, 3% of the Moon is Illuminated
Dec 4
Waxing Crescent
Dec 9
First Quarter
Dec 17
Full
Dec 25
Last Quarter
Jan 1
New

Hourly Weather History & Observations

Time (GMT) Temp. Dew Point Humidity Pressure Visibility Wind Dir Wind Speed Gust Speed Precip Events Conditions
12:56 AM 74.8 °F 63.0 °F 66% 30.80 in 7.0 mi SW 16.1 mph - N/A   Partly Cloudy
1:56 AM 73.9 °F 63.9 °F 71% 30.79 in 6.0 mi SW 19.6 mph - N/A   Haze
2:14 AM 73.4 °F 64.4 °F 73% 29.88 in 6.0 mi SW 17.3 mph - N/A   Haze
2:56 AM 73.4 °F 64.4 °F 73% 29.87 in 5.0 mi SW 16.1 mph - N/A   Haze
3:01 AM 73.4 °F 66.2 °F 78% 29.86 in 1.8 mi SW 18.4 mph - N/A   Haze
3:13 AM 73.4 °F 66.2 °F 78% 29.86 in 3.0 mi SSW 19.6 mph - N/A   Haze
3:56 AM 72.9 °F 68.9 °F 87% 30.77 in 5.0 mi SW 18.4 mph 26.5 mph N/A   Mostly Cloudy
4:25 AM 73.4 °F 69.8 °F 88% 29.88 in 5.0 mi SW 17.3 mph - N/A   Mostly Cloudy
4:56 AM 73.9 °F 68.9 °F 84% 30.79 in 5.0 mi SW 18.4 mph - N/A   Haze
5:44 AM 73.4 °F 69.8 °F 88% 29.88 in 7.0 mi SW 20.7 mph 25.3 mph N/A   Mostly Cloudy
5:56 AM 73.4 °F 69.8 °F 88% 29.88 in 6.0 mi SW 18.4 mph - N/A   Mostly Cloudy
6:56 AM 70.9 °F 66.9 °F 87% 30.82 in 0.5 mi NNW 18.4 mph 39.1 mph 0.09 in Fog , Rain Heavy Rain
6:58 AM 69.8 °F 66.2 °F 88% 29.91 in 0.5 mi NNW 13.8 mph 39.1 mph 0.00 in Fog , Rain Heavy Rain
7:06 AM 69.8 °F 66.2 °F 88% 29.91 in 1.0 mi NW 15.0 mph 19.6 mph 0.01 in Rain Light Rain
7:09 AM 68.0 °F 66.2 °F 94% 29.91 in 1.5 mi NNW 11.5 mph - 0.01 in Rain Light Rain
7:12 AM 68.0 °F 66.2 °F 94% 29.90 in 2.0 mi NNW 9.2 mph 18.4 mph 0.01 in Rain Light Rain
7:20 AM 68.0 °F 66.2 °F 94% 29.91 in 4.0 mi NNW 9.2 mph - 0.01 in Rain Light Rain
7:25 AM 68.0 °F 66.2 °F 94% 29.91 in 2.5 mi NW 10.4 mph - 0.01 in Rain Light Rain
7:56 AM 68.9 °F 65.8 °F 90% 30.84 in 3.0 mi NW 9.2 mph - 0.01 in   Mostly Cloudy
8:16 AM 69.8 °F 66.2 °F 88% 29.93 in 1.8 mi WNW 9.2 mph - N/A   Mostly Cloudy
8:30 AM 71.6 °F 66.2 °F 83% 29.94 in 3.0 mi NW 12.7 mph 16.1 mph N/A   Partly Cloudy
8:56 AM 71.6 °F 66.2 °F 83% 29.94 in 1.5 mi NW 10.4 mph 18.4 mph N/A   Haze
9:11 AM 71.6 °F 66.2 °F 83% 29.94 in 1.2 mi WNW 9.2 mph - N/A   Haze
9:14 AM 71.6 °F 66.2 °F 83% 29.94 in 1.2 mi NW 9.2 mph - N/A   Haze
9:17 AM 71.6 °F 66.2 °F 83% 29.93 in 1.5 mi NW 10.4 mph - N/A   Haze
9:20 AM 71.6 °F 66.2 °F 83% 29.94 in 2.0 mi WNW 9.2 mph - N/A   Haze
9:23 AM 71.6 °F 66.2 °F 83% 29.94 in 3.0 mi NW 10.4 mph - N/A   Haze
9:56 AM 72.0 °F 64.9 °F 78% 30.84 in 3.0 mi NW 5.8 mph - N/A   Haze
10:05 AM 71.6 °F 64.4 °F 78% 29.93 in 2.0 mi NW 8.1 mph 16.1 mph N/A   Haze
10:21 AM 71.6 °F 64.4 °F 78% 29.94 in 6.0 mi NW 13.8 mph - N/A   Haze
10:56 AM 72.0 °F 64.9 °F 78% 30.84 in 8.0 mi NW 11.5 mph 16.1 mph N/A   Mostly Cloudy
11:56 AM 72.0 °F 64.9 °F 78% 30.83 in 8.0 mi NW 10.4 mph - N/A   Clear
12:56 PM 72.0 °F 64.9 °F 78% 30.86 in 9.0 mi NW 12.7 mph 19.6 mph N/A   Mostly Cloudy
1:36 PM 69.8 °F 64.4 °F 83% 29.95 in 7.0 mi NNW 6.9 mph - 0.00 in   Overcast
1:56 PM 70.9 °F 63.0 °F 76% 30.86 in 8.0 mi NNW 12.7 mph - 0.00 in   Overcast
2:56 PM 70.0 °F 63.0 °F 78% 30.86 in 8.0 mi NNW 11.5 mph - N/A   Partly Cloudy
3:56 PM 70.0 °F 61.0 °F 73% 30.87 in 8.0 mi NNW 8.1 mph - N/A   Partly Cloudy
4:56 PM 70.0 °F 59.9 °F 70% 30.88 in 9.0 mi NNW 11.5 mph - N/A   Partly Cloudy
5:56 PM 69.8 °F 59.0 °F 68% 30.00 in 8.0 mi NNW 10.4 mph - N/A   Mostly Cloudy
6:56 PM 68.9 °F 57.9 °F 68% 30.93 in 7.0 mi North 11.5 mph - N/A   Partly Cloudy
7:56 PM 70.9 °F 57.9 °F 63% 30.94 in 7.0 mi NNW 6.9 mph - N/A   Partly Cloudy
8:56 PM 70.9 °F 55.9 °F 59% 30.96 in 7.0 mi NNW 13.8 mph - N/A   Scattered Clouds
9:44 PM 71.6 °F 57.2 °F 60% 30.05 in 2.5 mi North 10.4 mph - N/A   Haze
9:56 PM 70.9 °F 57.9 °F 63% 30.96 in 2.5 mi NNW 10.4 mph 19.6 mph N/A   Haze
10:33 PM 73.4 °F 55.4 °F 53% 30.05 in 5.0 mi North 13.8 mph 19.6 mph N/A   Haze
10:56 PM 72.0 °F 55.9 °F 57% 30.96 in 7.0 mi North 13.8 mph - N/A   Partly Cloudy
11:56 PM 70.0 °F 52.9 °F 55% 30.96 in 7.0 mi NNW 11.5 mph - N/A   Scattered Clouds